Change the Weather History Date:

Wednesday, October 23, 2013

  Actual Average (KCIU) Record (KCIU)
Temperature  
Mean Temperature 36 °F -  
Max Temperature 43 °F 48 °F 68 °F (1998)
Min Temperature 28 °F 29 °F 21 °F (2002)
Degree Days  
Heating Degree Days 30    
Moisture  
Dew Point 30 °F    
Average Humidity 77    
Maximum Humidity 89    
Minimum Humidity 60    
Precipitation  
Precipitation 0.00 in - - ()
Sea Level Pressure  
Sea Level Pressure 29.79 in    
Wind  
Wind Speed 6 mph (NW)    
Max Wind Speed 14 mph    
Max Gust Speed 23 mph    
Visibility 10 miles    
Events Rain , Snow    
Averages and records for this station are not official NWS values.
T = Trace of Precipitation, MM = Missing Value Source: NWS Daily Summary

Daily Weather History Graph

Daily Weather History Graph

Search for Another Location

Airport or City:

Trip Planner

Search our weather history database for the weather conditions in past years. The results will help you decide how hot, cold, wet, or windy it might be!

Date:

Astronomy

Oct. 23, 2013 Rise Set
Actual Time 8:03 AM EDT 6:34 PM EDT
Civil Twilight 7:32 AM EDT 7:05 PM EDT
Nautical Twilight 6:57 AM EDT 7:40 PM EDT
Astronomical Twilight 6:23 AM EDT 8:14 PM EDT
Moon 9:56 PM EDT (10/23) 12:27 PM EDT (10/23)
Length of Visible Light 11h 32m
Length of Day
10h 31m
Waning Gibbous, 79% of the Moon is Illuminated
Oct 23
Waning Gibbous
Oct 26
Last Quarter
Nov 3
New
Nov 10
First Quarter
Nov 17
Full

Hourly Weather History & Observations

Time (EDT) Temp. Windchill Dew Point Humidity Pressure Visibility Wind Dir Wind Speed Gust Speed Precip Events Conditions
12:16 AM 37.2 °F 31.2 °F 32.0 °F 81% 29.81 in 10.0 mi NW 8.1 mph - N/A   Overcast
12:35 AM 36.9 °F 32.2 °F 32.2 °F 83% 29.81 in 10.0 mi NNW 5.8 mph - N/A   Overcast
12:56 AM 36.5 °F 31.8 °F 32.0 °F 84% 29.81 in 10.0 mi NW 5.8 mph - N/A   Overcast
1:15 AM 36.5 °F - 32.0 °F 84% 29.81 in 10.0 mi Calm Calm - N/A   Overcast
1:36 AM 36.1 °F 32.3 °F 32.0 °F 85% 29.81 in 10.0 mi NNW 4.6 mph - N/A   Mostly Cloudy
1:56 AM 36.5 °F 31.8 °F 32.0 °F 84% 29.81 in 10.0 mi WNW 5.8 mph - N/A   Overcast
2:15 AM 35.8 °F 30.9 °F 32.0 °F 86% 29.81 in 7.0 mi NW 5.8 mph - N/A Snow Light Snow
2:36 AM 35.6 °F 29.9 °F 31.3 °F 84% 29.81 in 10.0 mi NW 6.9 mph - N/A   Mostly Cloudy
2:56 AM 35.2 °F 28.1 °F 26.4 °F 70% 29.81 in 10.0 mi NW 9.2 mph - N/A   Scattered Clouds
3:15 AM 34.9 °F 28.3 °F 25.5 °F 69% 29.81 in 10.0 mi NW 8.1 mph - N/A   Clear
3:36 AM 34.7 °F 28.1 °F 24.4 °F 66% 29.80 in 10.0 mi NW 8.1 mph 16.1 mph N/A   Clear
3:55 AM 34.7 °F 27.5 °F 23.9 °F 65% 29.80 in 10.0 mi NNW 9.2 mph - N/A   Clear
4:15 AM 33.8 °F 27.0 °F 23.2 °F 65% 29.80 in 10.0 mi NNW 8.1 mph 21.9 mph N/A   Clear
4:36 AM 33.1 °F 26.9 °F 22.8 °F 66% 29.80 in 10.0 mi NNW 6.9 mph 18.4 mph N/A   Clear
4:55 AM 32.9 °F 28.5 °F 23.5 °F 68% 29.80 in 10.0 mi NW 4.6 mph - N/A   Clear
5:15 AM 32.5 °F 28.1 °F 22.8 °F 67% 29.80 in 10.0 mi NNW 4.6 mph - N/A   Clear
5:36 AM 32.4 °F 27.9 °F 22.8 °F 68% 29.80 in 10.0 mi NW 4.6 mph - N/A   Clear
5:55 AM 32.0 °F 27.5 °F 23.0 °F 69% 29.80 in 10.0 mi NNW 4.6 mph - N/A   Clear
6:16 AM 32.0 °F 28.7 °F 23.0 °F 69% 29.79 in 10.0 mi NW 3.5 mph - N/A   Clear
6:35 AM 32.0 °F 28.7 °F 22.5 °F 68% 29.79 in 10.0 mi NW 3.5 mph - N/A   Clear
6:55 AM 31.5 °F 28.1 °F 22.5 °F 69% 29.79 in 10.0 mi NW 3.5 mph - N/A   Clear
7:16 AM 31.5 °F - 22.8 °F 70% 29.80 in 10.0 mi Calm Calm - N/A   Scattered Clouds
7:35 AM 32.0 °F - 23.7 °F 71% 29.80 in 10.0 mi Calm Calm - N/A   Mostly Cloudy
7:56 AM 32.0 °F - 23.4 °F 70% 29.80 in 10.0 mi Calm Calm - N/A   Mostly Cloudy
8:15 AM 28.9 °F - 24.4 °F 83% 29.80 in 10.0 mi Calm Calm - N/A   Scattered Clouds
8:35 AM 28.2 °F - 25.3 °F 89% 29.80 in 10.0 mi Calm Calm - N/A   Scattered Clouds
8:56 AM 30.0 °F - 26.6 °F 87% 29.80 in 10.0 mi Calm Calm - N/A   Overcast
9:15 AM 32.0 °F - 27.5 °F 83% 29.80 in 10.0 mi Calm Calm - N/A   Overcast
9:36 AM 33.4 °F - 28.2 °F 81% 29.80 in 10.0 mi Calm Calm - N/A   Overcast
9:56 AM 34.9 °F - 27.5 °F 74% 29.80 in 10.0 mi Calm Calm - N/A   Overcast
10:15 AM 36.1 °F 31.4 °F 26.6 °F 68% 29.79 in 10.0 mi West 5.8 mph - N/A   Overcast
10:36 AM 38.1 °F 32.9 °F 28.8 °F 69% 29.79 in 10.0 mi West 6.9 mph - N/A   Overcast
10:56 AM 38.1 °F 32.3 °F 30.4 °F 74% 29.78 in 10.0 mi WNW 8.1 mph - N/A   Overcast
11:15 AM 37.8 °F 33.3 °F 32.0 °F 80% 29.78 in 10.0 mi WNW 5.8 mph - N/A   Overcast
11:36 AM 37.9 °F 34.4 °F 32.0 °F 79% 29.78 in 10.0 mi WNW 4.6 mph - N/A   Overcast
11:55 AM 38.5 °F 32.1 °F 32.0 °F 78% 29.78 in 10.0 mi NW 9.2 mph - N/A   Overcast
12:15 PM 36.5 °F 31.8 °F 33.6 °F 89% 29.78 in 4.0 mi NW 5.8 mph - N/A   Overcast
12:36 PM 39.7 °F 36.5 °F 33.8 °F 79% 29.78 in 10.0 mi West 4.6 mph - N/A   Mostly Cloudy
12:55 PM 40.3 °F 36.3 °F 33.3 °F 76% 29.78 in 10.0 mi WNW 5.8 mph - N/A   Mostly Cloudy
1:15 PM 40.8 °F 37.8 °F 33.3 °F 74% 29.77 in 10.0 mi WNW 4.6 mph - N/A   Overcast
1:36 PM 39.6 °F 35.4 °F 31.1 °F 72% 29.76 in 10.0 mi WNW 5.8 mph - N/A   Mostly Cloudy
1:55 PM 41.4 °F 39.4 °F 31.3 °F 67% 29.76 in 10.0 mi NNW 3.5 mph - N/A   Overcast
2:16 PM 41.0 °F 38.0 °F 31.1 °F 68% 29.76 in 10.0 mi WNW 4.6 mph - N/A   Overcast
2:36 PM 40.3 °F 36.3 °F 33.6 °F 77% 29.76 in 10.0 mi NNW 5.8 mph - N/A   Overcast
2:55 PM 39.4 °F 33.8 °F 33.1 °F 78% 29.76 in 10.0 mi NNW 8.1 mph - N/A Rain Light Rain
3:16 PM 39.9 °F 36.7 °F 34.5 °F 81% 29.75 in 10.0 mi WNW 4.6 mph - N/A   Mostly Cloudy
3:36 PM 43.5 °F 37.5 °F 31.5 °F 63% 29.75 in 10.0 mi WNW 11.5 mph 21.9 mph N/A   Mostly Cloudy
3:55 PM 42.4 °F 36.5 °F 29.5 °F 60% 29.76 in 10.0 mi WNW 10.4 mph 18.4 mph N/A   Overcast
4:16 PM 41.9 °F 36.3 °F 29.5 °F 61% 29.76 in 10.0 mi WNW 9.2 mph 20.7 mph N/A   Mostly Cloudy
4:35 PM 39.2 °F 33.6 °F 32.9 °F 78% 29.76 in 10.0 mi NNW 8.1 mph 18.4 mph N/A   Mostly Cloudy
4:55 PM 38.3 °F 31.4 °F 32.0 °F 78% 29.77 in 10.0 mi NW 10.4 mph 18.4 mph N/A   Overcast
5:16 PM 38.5 °F 32.7 °F 32.5 °F 79% 29.77 in 10.0 mi WNW 8.1 mph - N/A   Mostly Cloudy
5:35 PM 38.3 °F 33.2 °F 31.8 °F 77% 29.77 in 10.0 mi NW 6.9 mph - N/A   Scattered Clouds
5:55 PM 38.3 °F 31.9 °F 33.3 °F 82% 29.78 in 7.0 mi WNW 9.2 mph 16.1 mph N/A   Mostly Cloudy
6:16 PM 37.0 °F 32.4 °F 32.2 °F 83% 29.78 in 10.0 mi WNW 5.8 mph - N/A   Mostly Cloudy
6:35 PM 37.6 °F 32.3 °F 32.0 °F 80% 29.78 in 10.0 mi WNW 6.9 mph 16.1 mph N/A   Scattered Clouds
6:56 PM 37.4 °F 31.4 °F 32.0 °F 81% 29.78 in 10.0 mi WNW 8.1 mph - N/A   Mostly Cloudy
7:16 PM 37.8 °F 31.3 °F 32.0 °F 80% 29.79 in 10.0 mi WNW 9.2 mph 18.4 mph N/A   Light Drizzle
7:35 PM 37.4 °F 30.8 °F 32.5 °F 83% 29.79 in 10.0 mi WNW 9.2 mph - N/A Rain Light Rain
7:56 PM 37.4 °F 28.9 °F 32.4 °F 82% 29.79 in 10.0 mi WNW 13.8 mph 23.0 mph N/A   Overcast
8:16 PM 37.0 °F 29.8 °F 32.0 °F 82% 29.79 in 10.0 mi WNW 10.4 mph 16.1 mph N/A   Overcast
8:35 PM 37.0 °F 29.3 °F 32.0 °F 82% 29.79 in 10.0 mi WNW 11.5 mph 19.6 mph N/A   Mostly Cloudy
8:56 PM 37.0 °F 30.4 °F 32.0 °F 82% 29.79 in 10.0 mi WNW 9.2 mph 18.4 mph N/A   Mostly Cloudy
9:16 PM 37.0 °F 31.0 °F 32.0 °F 82% 29.79 in 10.0 mi WNW 8.1 mph 18.4 mph N/A   Mostly Cloudy
9:35 PM 37.0 °F 29.3 °F 32.0 °F 82% 29.78 in 10.0 mi NW 11.5 mph 19.6 mph N/A   Overcast
9:56 PM 36.7 °F 29.4 °F 32.4 °F 84% 29.78 in 10.0 mi WNW 10.4 mph 16.1 mph N/A   Overcast
10:15 PM 37.0 °F 31.0 °F 32.5 °F 84% 29.78 in 10.0 mi NW 8.1 mph - N/A   Overcast
10:35 PM 36.9 °F 30.1 °F 32.4 °F 84% 29.78 in 10.0 mi WNW 9.2 mph 20.7 mph N/A   Overcast
10:56 PM 36.5 °F 29.7 °F 32.2 °F 84% 29.78 in 10.0 mi WNW 9.2 mph 16.1 mph N/A   Overcast
11:15 PM 36.5 °F 29.2 °F 32.2 °F 84% 29.78 in 10.0 mi West 10.4 mph 17.3 mph N/A   Overcast
11:36 PM 36.5 °F 28.7 °F 32.5 °F 86% 29.78 in 10.0 mi WNW 11.5 mph 18.4 mph N/A   Overcast
11:55 PM 36.5 °F 31.0 °F 32.5 °F 86% 29.78 in 10.0 mi WNW 6.9 mph - N/A   Overcast